Miscellaneous Local Product
Issued by NWS Hastings, NE

Home | Current Version | Previous Version | Graphics & Text | Print | Product List | Glossary On
Versions: 1 2 3 4 5 6 7 8 9 10 11 12 13 14 15 16 17 18 19 20 21 22 23 24 25 26 27 28 29 30 31 32 33 34 35 36 37 38 39 40 41 42 43 44 45 46 47 48 49 50
000
AXUS43 KGID 310502
MISGRI

GID CWA HOURLY WEATHER ROUNDUP
NATIONAL WEATHER SERVICE HASTINGS NE
1200 AM CDT SUN AUG 31 2014

NOTE: "FAIR" INDICATES FEW OR NO CLOUDS BELOW 12,000 FEET WITH NO
SIGNIFICANT WEATHER AND/OR OBSTRUCTIONS TO VISIBILITY.

...SOUTH CENTRAL NEBRASKA...

CITY           SKY/WX    TMP DP  RH WIND       PRES   REMARKS
GRAND ISLAND   CLEAR     72  64  76 S13       29.83F
HASTINGS       CLEAR     71  61  70 S8        29.85R
KEARNEY        CLEAR     70  61  73 S9        29.84S
ORD            CLEAR     70  65  84 SE7       29.80S
YORK           CLEAR     72 N/A N/A S6        29.85S
AURORA         CLEAR     70  65  84 S7        29.84S
LEXINGTON      CLEAR     74  60  61 S16G22    29.83S
HOLDREGE       CLEAR     71  60  68 S12       29.85R
HEBRON         CLEAR     70  61  73 S7        29.85F

...NEBRASKA PANHANDLE...

CITY           SKY/WX    TMP DP  RH WIND       PRES   REMARKS
CHADRON        MOCLDY    70  55  59 NW13      29.81R
ALLIANCE       CLOUDY    68  53  58 SE10      29.85F
SCOTTSBLUFF    CLOUDY    69  51  52 S8        29.86F
SIDNEY         CLOUDY    73  47  39 S7        29.92S

...WESTERN AND NORTH CENTRAL NEBRASKA...

CITY           SKY/WX    TMP DP  RH WIND       PRES   REMARKS
VALENTINE      MOCLDY    76  63  64 SW13      29.77R
AINSWORTH      PTCLDY    71  64  78 S20       29.76S
ONEILL         CLEAR     71  67  88 SE12      29.79F
BROKEN BOW     CLEAR     68  63  84 SE6       29.82S
IMPERIAL       PTCLDY    73  57  57 SW9G20    29.86R
NORTH PLATTE   CLEAR     73  55  53 S15G22    29.80F
MCCOOK         PTCLDY    75  54  47 S17G24    29.83F

...EASTERN NEBRASKA...

CITY           SKY/WX    TMP DP  RH WIND       PRES   REMARKS
NORFOLK        CLEAR     71  63  75 SE10      29.82F
SO SIOUX CITY  CLEAR     66  62  87 SE8       29.84S
TEKAMAH        CLEAR     67  64  90 SE6       29.85S
COLUMBUS       CLEAR     66  63  88 E3        29.85S
ALBION         CLEAR     68  64  85 SE6       29.82F
OMAHA EPPLEY   CLEAR     70  64  81 SE5       29.86F
OFFUTT AFB     CLEAR     69  69  99 E6        29.85F
MILLARD        CLEAR     70  65  84 CALM      29.85F
LINCOLN        CLEAR     73  64  73 S6        29.85F
NEBRASKA CITY  CLEAR     69  69 100 S7        29.87S
BEATRICE       CLEAR     72  65  80 SE7       29.86S
FALLS CITY     CLEAR     69  66  90 SE6       29.87F

...NORTHERN KANSAS...

CITY           SKY/WX    TMP DP  RH WIND       PRES   REMARKS
GOODLAND       CLEAR     71  55  56 S15       29.90S
HILL CITY      CLEAR     76  56  49 S12G20    29.85F
NORTON         CLEAR     73  52  46 S10       29.84F
PHILLIPSBURG   CLEAR     75  57  53 S8        29.85S
SMITH CENTER   CLEAR     70  61  73 SE10      29.86S
BELOIT         CLEAR     73  61  64 SE8       29.84S
HAYS           CLEAR     75  55  50 S16       29.87S
RUSSELL        CLEAR     74  60  61 S12       29.86S
CONCORDIA      CLEAR     71  62  73 S9        29.85F
SALINA         CLEAR     74  59  59 S9        29.87S
TOPEKA         CLEAR     75  67  76 E5        29.88F



USA.gov is the U.S. government's official web portal to all federal, state and local government web resources and services.